Time,TemperatureF,DewpointF,PressureIn,WindDirection,WindDirectionDegrees,WindSpeedMPH,WindSpeedGustMPH,Humidity,HourlyPrecipIn,Conditions,Clouds,dailyrainin,SolarRadiationWatts/m^2,SoftwareType,DateUTC
2013-06-16 00:01:00,58.0,57.0,-100.00,SSW,199,1.0,3.0,98,0.00,,,0.00,0.000000,,2013-06-16 05:01:00,
2013-06-16 00:34:00,54.0,53.0,-100.00,SW,222,2.0,3.0,98,0.00,,,0.00,0.000000,,2013-06-16 05:34:00,
2013-06-16 00:43:00,54.0,53.0,-100.00,SW,222,2.0,3.0,98,0.00,,,0.00,0.000000,,2013-06-16 05:43:00,
2013-06-16 00:52:00,54.0,53.0,-100.00,SW,222,2.0,3.0,98,0.00,,,0.00,0.000000,,2013-06-16 05:52:00,
2013-06-16 01:01:00,54.0,53.0,-100.00,SW,222,2.0,3.0,98,0.00,,,0.00,0.000000,,2013-06-16 06:01:00,
2013-06-16 01:33:00,52.0,51.0,-100.00,SSW,212,2.0,2.0,98,0.00,,,0.00,0.000000,,2013-06-16 06:33:00,
2013-06-16 01:43:00,52.0,51.0,-100.00,SSW,212,2.0,2.0,98,0.00,,,0.00,0.000000,,2013-06-16 06:43:00,
2013-06-16 01:52:00,52.0,51.0,-100.00,SSW,212,2.0,2.0,98,0.00,,,0.00,0.000000,,2013-06-16 06:52:00,
2013-06-16 02:01:00,52.0,51.0,-100.00,SSW,212,2.0,2.0,98,0.00,,,0.00,0.000000,,2013-06-16 07:01:00,
2013-06-16 02:33:00,50.0,50.0,-100.00,SW,230,1.0,3.0,99,0.00,,,0.00,0.000000,,2013-06-16 07:33:00,
2013-06-16 02:43:00,50.0,50.0,-100.00,SW,230,1.0,3.0,99,0.00,,,0.00,0.000000,,2013-06-16 07:43:00,
2013-06-16 02:53:00,50.0,50.0,-100.00,SW,230,1.0,3.0,99,0.00,,,0.00,0.000000,,2013-06-16 07:53:00,
2013-06-16 03:02:00,50.0,50.0,-100.00,SW,230,1.0,3.0,99,0.00,,,0.00,0.000000,,2013-06-16 08:02:00,
2013-06-16 04:33:00,50.0,50.0,-100.00,WSW,238,3.0,5.0,99,-99.99,,,0.00,0.000000,,2013-06-16 09:33:00,
2013-06-16 04:43:00,50.0,50.0,-100.00,WSW,238,3.0,5.0,99,-99.99,,,0.00,0.000000,,2013-06-16 09:43:00,
2013-06-16 04:52:00,50.0,50.0,-100.00,WSW,238,3.0,5.0,99,-99.99,,,0.00,0.000000,,2013-06-16 09:52:00,
2013-06-16 05:01:00,50.0,50.0,-100.00,WSW,238,3.0,5.0,99,-99.99,,,0.00,0.000000,,2013-06-16 10:01:00,
2013-06-16 05:33:00,49.0,48.0,-100.00,WSW,246,4.0,5.0,97,0.00,,,0.00,0.000000,,2013-06-16 10:33:00,
2013-06-16 05:43:00,49.0,48.0,-100.00,WSW,246,4.0,5.0,97,0.00,,,0.00,0.000000,,2013-06-16 10:43:00,
2013-06-16 05:54:00,49.0,48.0,-100.00,WSW,246,4.0,5.0,97,0.00,,,0.00,0.000000,,2013-06-16 10:54:00,
2013-06-16 06:02:00,49.0,48.0,-100.00,WSW,246,4.0,5.0,97,0.00,,,0.00,0.000000,,2013-06-16 11:02:00,
2013-06-16 06:34:00,51.0,49.0,-100.00,SSW,197,1.0,5.0,94,0.00,,,0.00,18.000000,,2013-06-16 11:34:00,
2013-06-16 06:43:00,51.0,49.0,-100.00,SSW,197,1.0,5.0,94,0.00,,,0.00,18.000000,,2013-06-16 11:43:00,
2013-06-16 06:53:00,51.0,49.0,-100.00,SSW,197,1.0,5.0,94,0.00,,,0.00,18.000000,,2013-06-16 11:53:00,
2013-06-16 07:02:00,51.0,49.0,-100.00,SSW,197,1.0,5.0,94,0.00,,,0.00,18.000000,,2013-06-16 12:02:00,
2013-06-16 07:33:00,60.0,53.0,-100.00,WSW,238,4.0,6.0,78,0.00,,,0.00,135.000000,,2013-06-16 12:33:00,
2013-06-16 07:43:00,60.0,53.0,-100.00,WSW,238,4.0,6.0,78,0.00,,,0.00,135.000000,,2013-06-16 12:43:00,
2013-06-16 07:53:00,60.0,53.0,-100.00,WSW,238,4.0,6.0,78,0.00,,,0.00,135.000000,,2013-06-16 12:53:00,
2013-06-16 08:01:00,60.0,53.0,-100.00,WSW,238,4.0,6.0,78,0.00,,,0.00,135.000000,,2013-06-16 13:01:00,
2013-06-16 08:34:00,67.0,56.0,-100.00,WSW,254,4.0,7.0,67,0.00,,,0.00,272.000000,,2013-06-16 13:34:00,
2013-06-16 08:43:00,67.0,56.0,-100.00,WSW,254,4.0,7.0,67,0.00,,,0.00,272.000000,,2013-06-16 13:43:00,
2013-06-16 08:54:00,67.0,56.0,-100.00,WSW,254,4.0,7.0,67,0.00,,,0.00,272.000000,,2013-06-16 13:54:00,
2013-06-16 09:02:00,67.0,56.0,-100.00,WSW,254,4.0,7.0,67,0.00,,,0.00,272.000000,,2013-06-16 14:02:00,
2013-06-16 09:34:00,73.0,54.0,-100.00,WNW,287,4.0,11.0,52,0.00,,,0.00,421.000000,,2013-06-16 14:34:00,
2013-06-16 09:44:00,73.0,54.0,-100.00,WNW,287,4.0,11.0,52,0.00,,,0.00,421.000000,,2013-06-16 14:44:00,
2013-06-16 09:53:00,73.0,54.0,-100.00,WNW,287,4.0,11.0,52,0.00,,,0.00,421.000000,,2013-06-16 14:53:00,
2013-06-16 10:02:00,73.0,54.0,-100.00,WNW,287,4.0,11.0,52,0.00,,,0.00,421.000000,,2013-06-16 15:02:00,
2013-06-16 10:34:00,78.0,54.0,-100.00,NW,313,5.0,9.0,44,0.00,,,0.00,582.000000,,2013-06-16 15:34:00,
2013-06-16 10:43:00,78.0,54.0,-100.00,NW,313,5.0,9.0,44,0.00,,,0.00,582.000000,,2013-06-16 15:43:00,
2013-06-16 10:53:00,78.0,54.0,-100.00,NW,313,5.0,9.0,44,0.00,,,0.00,582.000000,,2013-06-16 15:53:00,
2013-06-16 11:02:00,78.0,54.0,-100.00,NW,313,5.0,9.0,44,0.00,,,0.00,582.000000,,2013-06-16 16:02:00,
2013-06-16 11:33:00,80.0,50.0,-100.00,WNW,283,8.0,17.0,35,0.00,,,0.00,733.000000,,2013-06-16 16:33:00,
2013-06-16 11:43:00,80.0,50.0,-100.00,WNW,283,8.0,17.0,35,0.00,,,0.00,733.000000,,2013-06-16 16:43:00,
2013-06-16 11:53:00,80.0,50.0,-100.00,WNW,283,8.0,17.0,35,0.00,,,0.00,733.000000,,2013-06-16 16:53:00,
2013-06-16 12:02:00,80.0,50.0,-100.00,WNW,283,8.0,17.0,35,0.00,,,0.00,733.000000,,2013-06-16 17:02:00,
2013-06-16 12:34:00,82.0,48.0,-100.00,West,276,8.0,16.0,31,0.00,,,0.00,828.000000,,2013-06-16 17:34:00,
2013-06-16 12:43:00,82.0,48.0,-100.00,West,276,8.0,16.0,31,0.00,,,0.00,828.000000,,2013-06-16 17:43:00,
2013-06-16 12:53:00,82.0,48.0,-100.00,West,276,8.0,16.0,31,0.00,,,0.00,828.000000,,2013-06-16 17:53:00,
2013-06-16 13:02:00,82.0,48.0,-100.00,West,276,8.0,16.0,31,0.00,,,0.00,828.000000,,2013-06-16 18:02:00,
2013-06-16 13:34:00,83.0,46.0,-100.00,West,265,10.0,18.0,27,0.00,,,0.00,855.000000,,2013-06-16 18:34:00,
2013-06-16 13:43:00,83.0,46.0,-100.00,West,265,10.0,18.0,27,0.00,,,0.00,855.000000,,2013-06-16 18:43:00,
2013-06-16 13:52:00,83.0,46.0,-100.00,West,265,10.0,18.0,27,0.00,,,0.00,855.000000,,2013-06-16 18:52:00,
2013-06-16 14:01:00,83.0,46.0,-100.00,West,265,10.0,18.0,27,0.00,,,0.00,855.000000,,2013-06-16 19:01:00,
2013-06-16 14:34:00,84.0,45.0,-100.00,West,261,8.0,17.0,26,0.00,,,0.00,838.000000,,2013-06-16 19:34:00,
2013-06-16 14:43:00,84.0,45.0,-100.00,West,261,8.0,17.0,26,0.00,,,0.00,838.000000,,2013-06-16 19:43:00,
2013-06-16 14:53:00,84.0,45.0,-100.00,West,261,8.0,17.0,26,0.00,,,0.00,838.000000,,2013-06-16 19:53:00,
2013-06-16 15:02:00,84.0,45.0,-100.00,West,261,8.0,17.0,26,0.00,,,0.00,838.000000,,2013-06-16 20:02:00,
2013-06-16 15:33:00,85.0,44.0,-100.00,West,275,10.0,21.0,24,0.00,,,0.00,802.000000,,2013-06-16 20:33:00,
2013-06-16 15:43:00,85.0,44.0,-100.00,West,275,10.0,21.0,24,0.00,,,0.00,802.000000,,2013-06-16 20:43:00,
2013-06-16 15:53:00,85.0,44.0,-100.00,West,275,10.0,21.0,24,0.00,,,0.00,802.000000,,2013-06-16 20:53:00,
2013-06-16 16:02:00,85.0,44.0,-100.00,West,275,10.0,21.0,24,0.00,,,0.00,802.000000,,2013-06-16 21:02:00,
2013-06-16 16:33:00,86.0,41.0,-100.00,WSW,252,11.0,20.0,21,0.00,,,0.00,820.000000,,2013-06-16 21:33:00,
2013-06-16 16:42:00,86.0,41.0,-100.00,WSW,252,11.0,20.0,21,0.00,,,0.00,820.000000,,2013-06-16 21:42:00,
2013-06-16 16:53:00,86.0,41.0,-100.00,WSW,252,11.0,20.0,21,0.00,,,0.00,820.000000,,2013-06-16 21:53:00,
2013-06-16 17:01:00,86.0,41.0,-100.00,WSW,252,11.0,20.0,21,0.00,,,0.00,820.000000,,2013-06-16 22:01:00,
2013-06-16 17:32:00,86.0,41.0,-100.00,West,279,9.0,21.0,21,0.00,,,0.00,689.000000,,2013-06-16 22:32:00,
2013-06-16 17:42:00,86.0,41.0,-100.00,West,279,9.0,21.0,21,0.00,,,0.00,689.000000,,2013-06-16 22:42:00,
2013-06-16 17:52:00,86.0,41.0,-100.00,West,279,9.0,21.0,21,0.00,,,0.00,689.000000,,2013-06-16 22:52:00,
2013-06-16 18:01:00,86.0,41.0,-100.00,West,279,9.0,21.0,21,0.00,,,0.00,689.000000,,2013-06-16 23:01:00,
2013-06-16 18:32:00,87.0,42.0,-100.00,West,266,7.0,20.0,21,0.00,,,0.00,536.000000,,2013-06-16 23:32:00,
2013-06-16 18:42:00,87.0,42.0,-100.00,West,266,7.0,20.0,21,0.00,,,0.00,536.000000,,2013-06-16 23:42:00,
2013-06-16 18:52:00,87.0,42.0,-100.00,West,266,7.0,20.0,21,0.00,,,0.00,536.000000,,2013-06-16 23:52:00,
2013-06-16 19:02:00,87.0,42.0,-100.00,West,266,7.0,20.0,21,0.00,,,0.00,536.000000,,2013-06-17 00:02:00,
2013-06-16 19:32:00,85.0,42.0,-100.00,West,260,7.0,16.0,22,0.00,,,0.00,321.000000,,2013-06-17 00:32:00,
2013-06-16 19:43:00,85.0,42.0,-100.00,West,260,7.0,16.0,22,0.00,,,0.00,321.000000,,2013-06-17 00:43:00,
2013-06-16 19:52:00,85.0,42.0,-100.00,West,260,7.0,16.0,22,0.00,,,0.00,321.000000,,2013-06-17 00:52:00,
2013-06-16 20:02:00,85.0,42.0,-100.00,West,260,7.0,16.0,22,0.00,,,0.00,321.000000,,2013-06-17 01:02:00,
2013-06-16 20:32:00,78.0,47.0,-100.00,WSW,253,9.0,27.0,34,0.00,,,0.00,103.000000,,2013-06-17 01:32:00,
2013-06-16 20:43:00,78.0,47.0,-100.00,WSW,253,9.0,27.0,34,0.00,,,0.00,103.000000,,2013-06-17 01:43:00,
2013-06-16 20:53:00,78.0,47.0,-100.00,WSW,253,9.0,27.0,34,0.00,,,0.00,103.000000,,2013-06-17 01:53:00,
2013-06-16 21:02:00,78.0,47.0,-100.00,WSW,253,9.0,27.0,34,0.00,,,0.00,103.000000,,2013-06-17 02:02:00,
2013-06-16 21:34:00,72.0,49.0,-100.00,SW,236,3.0,11.0,44,0.00,,,0.00,29.000000,,2013-06-17 02:34:00,
2013-06-16 21:43:00,72.0,49.0,-100.00,SW,236,3.0,11.0,44,0.00,,,0.00,29.000000,,2013-06-17 02:43:00,
2013-06-16 21:53:00,72.0,49.0,-100.00,SW,236,3.0,11.0,44,0.00,,,0.00,29.000000,,2013-06-17 02:53:00,
2013-06-16 22:02:00,72.0,49.0,-100.00,SW,236,3.0,11.0,44,0.00,,,0.00,29.000000,,2013-06-17 03:02:00,
2013-06-16 22:33:00,64.0,52.0,-100.00,SW,221,2.0,5.0,64,0.00,,,0.00,0.000000,,2013-06-17 03:33:00,
2013-06-16 22:44:00,64.0,52.0,-100.00,SW,221,2.0,5.0,64,0.00,,,0.00,0.000000,,2013-06-17 03:44:00,
2013-06-16 22:54:00,64.0,52.0,-100.00,SW,221,2.0,5.0,64,0.00,,,0.00,0.000000,,2013-06-17 03:54:00,
2013-06-16 23:02:00,64.0,52.0,-100.00,SW,221,2.0,5.0,64,0.00,,,0.00,0.000000,,2013-06-17 04:02:00,
2013-06-16 23:34:00,65.0,53.0,-100.00,SW,227,4.0,7.0,65,0.00,,,-99.99,0.000000,,2013-06-17 04:34:00,
2013-06-16 23:43:00,65.0,53.0,-100.00,SW,227,4.0,7.0,65,0.00,,,-99.99,0.000000,,2013-06-17 04:43:00,
2013-06-16 23:53:00,65.0,53.0,-100.00,SW,227,4.0,7.0,65,0.00,,,-99.99,0.000000,,2013-06-17 04:53:00,